Time,TemperatureF,DewpointF,PressureIn,WindDirection,WindDirectionDegrees,WindSpeedMPH,WindSpeedGustMPH,Humidity,HourlyPrecipIn,Conditions,Clouds,dailyrainin,SoftwareType,DateUTC
2013-07-25 00:00:00,57.0,46.1,29.96,NNW,337,7.0,15.0,67,0.00,,,0.00,Weather View 32 v70,2013-07-25 04:00:00,
2013-07-25 00:04:00,57.0,46.1,29.96,NNW,337,7.0,15.0,67,0.00,,,0.00,Weather View 32 v70,2013-07-25 04:04:00,
2013-07-25 00:31:00,57.0,46.9,29.96,North,360,9.0,15.0,69,0.00,,,0.00,Weather View 32 v70,2013-07-25 04:31:00,
2013-07-25 01:00:00,57.0,46.9,29.96,NNW,337,12.0,15.0,69,0.00,,,0.00,Weather View 32 v70,2013-07-25 05:00:00,
2013-07-25 01:06:00,57.0,46.9,29.96,NNW,337,12.0,15.0,69,0.00,,,0.00,Weather View 32 v70,2013-07-25 05:06:00,
2013-07-25 01:35:00,56.0,45.2,29.97,NW,315,10.0,17.0,67,0.00,,,0.00,Weather View 32 v70,2013-07-25 05:35:00,
2013-07-25 02:00:00,56.0,45.2,29.97,NNW,337,10.0,17.0,67,0.00,,,0.00,Weather View 32 v70,2013-07-25 06:00:00,
2013-07-25 02:04:00,56.0,45.2,29.97,NNW,337,10.0,17.0,67,0.00,,,0.00,Weather View 32 v70,2013-07-25 06:04:00,
2013-07-25 02:30:00,55.0,42.2,29.99,NW,315,11.0,16.0,62,0.00,,,0.00,Weather View 32 v70,2013-07-25 06:30:00,
2013-07-25 03:00:00,54.0,40.0,29.99,SW,225,1.0,16.0,59,0.00,,,0.00,Weather View 32 v70,2013-07-25 07:00:00,
2013-07-25 03:30:00,54.0,38.6,30.01,WNW,292,7.0,12.0,56,0.00,,,0.00,Weather View 32 v70,2013-07-25 07:30:00,
2013-07-25 04:05:00,53.0,36.3,30.01,North,360,1.0,11.0,53,0.00,,,0.00,Weather View 32 v70,2013-07-25 08:05:00,
2013-07-25 04:36:00,52.0,29.0,30.03,NW,315,1.0,10.0,41,0.00,,,0.00,Weather View 32 v70,2013-07-25 08:36:00,
2013-07-25 05:04:00,52.0,19.0,30.05,NNW,337,2.0,7.0,27,0.00,,,0.00,Weather View 32 v70,2013-07-25 09:04:00,
2013-07-25 05:30:00,51.0,8.9,30.06,NNW,337,2.0,7.0,18,0.00,,,0.00,Weather View 32 v70,2013-07-25 09:30:00,
2013-07-25 05:34:00,51.0,8.9,30.06,NNW,337,2.0,7.0,18,0.00,,,0.00,Weather View 32 v70,2013-07-25 09:34:00,
2013-07-25 06:04:00,51.0,-3.7,30.07,NNW,337,0.0,6.0,10,0.00,,,0.00,Weather View 32 v70,2013-07-25 10:04:00,
2013-07-25 06:30:00,53.0,1.7,30.06,NNW,337,2.0,6.0,12,0.00,,,0.00,Weather View 32 v70,2013-07-25 10:30:00,
2013-07-25 06:31:00,53.0,1.7,30.06,NNW,337,2.0,6.0,12,0.00,,,0.00,Weather View 32 v70,2013-07-25 10:31:00,
2013-07-25 07:06:00,56.0,41.4,30.07,NNE,22,3.0,10.0,58,0.00,,,0.00,Weather View 32 v70,2013-07-25 11:06:00,
2013-07-25 07:30:00,59.0,47.6,30.05,NNW,337,7.0,15.0,66,0.00,,,0.00,Weather View 32 v70,2013-07-25 11:30:00,
2013-07-25 07:32:00,59.0,47.6,30.05,NNW,337,7.0,15.0,66,0.00,,,0.00,Weather View 32 v70,2013-07-25 11:32:00,
2013-07-25 08:02:00,60.0,52.0,30.06,North,360,7.0,20.0,75,0.00,,,0.00,Weather View 32 v70,2013-07-25 12:02:00,
2013-07-25 08:30:00,61.0,55.1,30.06,NNE,22,6.0,20.0,81,0.00,,,0.00,Weather View 32 v70,2013-07-25 12:30:00,
2013-07-25 08:31:00,61.0,55.1,30.06,NNE,22,6.0,20.0,81,0.00,,,0.00,Weather View 32 v70,2013-07-25 12:31:00,
2013-07-25 09:01:00,63.0,58.1,30.07,NNE,22,11.0,20.0,84,0.00,,,0.00,Weather View 32 v70,2013-07-25 13:01:00,
2013-07-25 09:30:00,65.0,60.7,30.06,NNW,337,6.0,18.0,86,0.00,,,0.00,Weather View 32 v70,2013-07-25 13:30:00,
2013-07-25 09:35:00,65.0,60.7,30.06,NNW,337,6.0,18.0,86,0.00,,,0.00,Weather View 32 v70,2013-07-25 13:35:00,
2013-07-25 10:05:00,64.0,60.0,30.08,NE,45,15.0,18.0,87,0.00,,,0.00,Weather View 32 v70,2013-07-25 14:05:00,
2013-07-25 10:30:00,67.0,61.0,30.07,ENE,67,10.0,16.0,81,0.00,,,0.00,Weather View 32 v70,2013-07-25 14:30:00,
2013-07-25 10:33:00,67.0,61.0,30.07,ENE,67,10.0,16.0,81,0.00,,,0.00,Weather View 32 v70,2013-07-25 14:33:00,
2013-07-25 11:05:00,67.0,62.0,30.07,NNE,22,4.0,16.0,84,0.00,,,0.00,Weather View 32 v70,2013-07-25 15:05:00,
2013-07-25 11:30:00,70.0,62.8,30.06,NNW,337,8.0,14.0,78,0.00,,,0.00,Weather View 32 v70,2013-07-25 15:30:00,
2013-07-25 11:35:00,70.0,62.8,30.06,NNW,337,8.0,14.0,78,0.00,,,0.00,Weather View 32 v70,2013-07-25 15:35:00,
2013-07-25 12:05:00,71.0,63.0,30.05,NE,45,1.0,14.0,76,0.00,,,0.00,Weather View 32 v70,2013-07-25 16:05:00,
2013-07-25 12:35:00,71.0,66.2,30.07,South,180,9.0,10.0,85,0.00,,,0.00,Weather View 32 v70,2013-07-25 16:35:00,
2013-07-25 13:05:00,68.0,64.3,30.06,SSE,157,7.0,9.0,88,0.00,,,0.00,Weather View 32 v70,2013-07-25 17:05:00,
2013-07-25 13:30:00,69.0,65.3,30.06,SSE,157,6.0,9.0,88,0.00,,,0.00,Weather View 32 v70,2013-07-25 17:30:00,
2013-07-25 14:00:00,70.0,65.6,30.05,SSE,157,4.0,9.0,86,0.00,,,0.00,Weather View 32 v70,2013-07-25 18:00:00,
2013-07-25 14:04:00,70.0,65.6,30.05,SSE,157,4.0,9.0,86,0.00,,,0.00,Weather View 32 v70,2013-07-25 18:04:00,
2013-07-25 14:33:00,70.0,64.6,30.06,SSE,157,6.0,7.0,83,0.00,,,0.00,Weather View 32 v70,2013-07-25 18:33:00,
2013-07-25 15:00:00,71.0,64.5,30.06,SSE,157,1.0,7.0,80,0.00,,,0.00,Weather View 32 v70,2013-07-25 19:00:00,
2013-07-25 15:02:00,71.0,64.5,30.06,SSE,157,1.0,7.0,80,0.00,,,0.00,Weather View 32 v70,2013-07-25 19:02:00,
2013-07-25 15:31:00,72.0,64.7,30.05,SSE,157,3.0,7.0,78,0.00,,,0.00,Weather View 32 v70,2013-07-25 19:31:00,
2013-07-25 16:00:00,71.0,64.1,30.04,SE,135,6.0,6.0,79,0.00,,,0.00,Weather View 32 v70,2013-07-25 20:00:00,
2013-07-25 16:04:00,71.0,64.1,30.04,SE,135,6.0,6.0,79,0.00,,,0.00,Weather View 32 v70,2013-07-25 20:04:00,
2013-07-25 16:34:00,71.0,64.9,30.05,SE,135,4.0,6.0,81,0.00,,,0.00,Weather View 32 v70,2013-07-25 20:34:00,
2013-07-25 17:00:00,73.0,63.8,30.04,NE,45,6.0,9.0,73,0.00,,,0.00,Weather View 32 v70,2013-07-25 21:00:00,
2013-07-25 17:01:00,73.0,63.8,30.04,NE,45,6.0,9.0,73,0.00,,,0.00,Weather View 32 v70,2013-07-25 21:01:00,
2013-07-25 17:35:00,72.0,66.9,30.04,NNE,22,2.0,9.0,84,0.00,,,0.00,Weather View 32 v70,2013-07-25 21:35:00,
2013-07-25 18:00:00,70.0,66.6,30.05,North,360,4.0,9.0,89,0.00,,,0.00,Weather View 32 v70,2013-07-25 22:00:00,
2013-07-25 18:35:00,69.0,65.6,30.04,North,360,4.0,7.0,89,0.00,,,0.00,Weather View 32 v70,2013-07-25 22:35:00,
2013-07-25 19:00:00,68.0,63.6,30.06,North,360,1.0,7.0,86,0.00,,,0.00,Weather View 32 v70,2013-07-25 23:00:00,
2013-07-25 19:03:00,68.0,63.6,30.06,North,360,1.0,7.0,86,0.00,,,0.00,Weather View 32 v70,2013-07-25 23:03:00,
2013-07-25 19:32:00,65.0,34.4,30.07,North,360,2.0,6.0,32,0.00,,,0.00,Weather View 32 v70,2013-07-25 23:32:00,
2013-07-25 20:00:00,64.0,-38.7,30.08,NNW,337,2.0,7.0,1,0.00,,,0.00,Weather View 32 v70,2013-07-26 00:00:00,
2013-07-25 20:04:00,64.0,-38.7,30.08,NNW,337,2.0,7.0,1,0.00,,,0.00,Weather View 32 v70,2013-07-26 00:04:00,
2013-07-25 20:33:00,63.0,-39.3,30.09,NNE,22,2.0,7.0,1,0.00,,,0.00,Weather View 32 v70,2013-07-26 00:33:00,
2013-07-25 21:01:00,63.0,-39.3,30.09,NNW,337,5.0,6.0,1,0.00,,,0.00,Weather View 32 v70,2013-07-26 01:01:00,
2013-07-25 21:30:00,62.0,-39.9,30.10,NE,45,0.0,7.0,1,0.00,,,0.00,Weather View 32 v70,2013-07-26 01:30:00,
2013-07-25 22:05:00,61.0,-40.5,30.11,East,90,1.0,7.0,1,0.00,,,0.00,Weather View 32 v70,2013-07-26 02:05:00,
2013-07-25 22:34:00,61.0,-40.5,30.11,NNE,22,0.0,6.0,1,0.00,,,0.00,Weather View 32 v70,2013-07-26 02:34:00,
2013-07-25 23:02:00,61.0,-40.5,30.10,NE,45,0.0,5.0,1,0.00,,,0.00,Weather View 32 v70,2013-07-26 03:02:00,
2013-07-25 23:34:00,61.0,-40.5,30.08,North,360,2.0,5.0,1,0.00,,,0.00,Weather View 32 v70,2013-07-26 03:34:00,